星链-31255 (STARLINK-31255 )

导读 | 豆包AI

STARLINK-31255是美国SpaceX公司于北京时间2024年1月29日8点发射的星链(Starlink)卫星,属于SpaceX打造的全球低轨卫星互联网星座组网卫星,用于为全球范围提供高速宽带互联网接入服务。星链星座整体部署在近地轨道,搭载Ku/Ka波段通信载荷与光学星间链路,能填补偏远、网络欠发达地区的通信空白,截至2026年该卫星已在轨运行超过2年,为全球用户提供卫星互联网服务。

基本信息
目录编号:
58893
目录名称:
STARLINK-31255
国际标识:
2024-020T
轨道中心:
EARTH
卫星名称:
星链-31255
卫星全名:
星链-31255 (STARLINK-31255 )
卫星状态:
在轨 (已飞行776 天)
发射日期:
2024-01-29 UTC
国别 :
美国 (US)
星等 :
--
轨道信息
数据来源 国际轨道数据
星历时间: 2026-03-15T22:12:26+0800
9小时前
查看轨道信息
半长轴: 6853.407km
偏心率: 0.0001338
轨道倾角: 53.160°
近地点辐角 90.574°
升交点赤经 295.085°
平近点角 269.542°
近地点: 474.353km
远地点: 476.187km
周期: 94.106分钟
每日圈数: 15.301818
详细信息
固有亮度:
5
最大亮度:
0.3
卫星平台:
Starlink v2.0 mini
覆盖范围:
全球
运营商:
太空探索技术公司
运营商所在国:
美国
制造商(研发单位):
太空探索技术公司
制造商所在国:
美国
使用方式:
暂无
卫星简介
星链(Starlink)计划是由太空探索技术公司(SpaceX)提出的一个巨型低轨卫星互联网星座项目,计划在2019年至2024年间在太空搭建由约1.2万颗卫星组成的“星链”网络,其中1584颗将部署在地球上空550千米处的近地轨道,并从2020年开始工作。该卫星仍在工作。
2D轨道图
3D轨道图
轨道高度分析图
轨道倾角分析图
轨道综合分析图
查看轨道综合分析图